Location: Strawberry
(45.6646°N, 111.9596°W)
Time: 17:03:46
(UTC+00:00)

ITAMSAT 1 - Visible Passes

Search period start: 30 November 2022 00:00
Search period end: 10 December 2022 00:00
Orbit: 784 x 795 km, 98.9° (Epoch: 30 November)

Date Brightness Start Highest point End Pass type
(mag) Time Alt. Az. Time Alt. Az. Time Alt. Az.
30 Nov 9.5 02:31:27 19° N 02:31:27 19° N 02:32:56 10° N visible
01 Dec 9.4 02:01:34 18° NNE 02:01:34 18° NNE 02:03:03 10° N visible
01 Dec 10.4 03:42:17 11° NNW 03:42:17 11° NNW 03:42:32 10° NNW visible
02 Dec 9.5 01:31:40 14° NNE 01:31:40 14° NNE 01:32:51 10° NNE visible
02 Dec 10.0 03:12:24 15° NNW 03:12:24 15° NNW 03:13:14 10° NNW visible
03 Dec 9.7 01:01:47 10° NNE 01:01:47 10° NNE 01:01:54 10° NNE visible
03 Dec 9.7 02:42:30 17° N 02:42:30 17° N 02:43:40 10° N visible
04 Dec 9.5 02:12:36 17° N 02:12:36 17° N 02:13:52 10° N visible
04 Dec 10.8 14:16:49 10° ENE 14:18:22 11° E 14:19:55 10° ESE visible
05 Dec 9.5 01:42:42 15° NNE 01:42:42 15° NNE 01:43:48 10° N visible
05 Dec 10.2 03:23:25 12° NNW 03:23:25 12° NNW 03:23:52 10° NNW visible
06 Dec 9.7 01:12:47 11° NNE 01:12:47 11° NNE 01:13:14 10° NNE visible
06 Dec 9.9 02:53:30 15° NNW 02:53:30 15° NNW 02:54:23 10° NNW visible
07 Dec 9.7 02:23:35 16° N 02:23:35 16° N 02:24:39 10° N visible
08 Dec 9.6 01:53:39 15° NNE 01:53:39 15° NNE 01:54:41 10° N visible
08 Dec 10.4 03:34:23 10° NNW 03:34:23 10° NNW 03:34:27 10° NNW visible
09 Dec 9.6 01:23:44 12° NNE 01:23:44 12° NNE 01:24:20 10° NNE visible
09 Dec 10.1 03:04:27 13° NNW 03:04:27 13° NNW 03:05:03 10° NNW visible
